Tracking 28888 objects as of 23-May-2024
HD Live streaming from Space Station
objects crossing your sky now

DELTA 4 R/B

Track DELTA 4 R/B now!


NORAD ID: 37233
Int'l Code: 2010-063B
Perigee: 33,868.3 km
Apogee: 35,671.2 km
Inclination: 7.5 °
Period: 1,384.1 minutes
Semi major axis: 41140 km
RCS: Unknown
Launch date: November 21, 2010
Source: United States (US)
Launch site: AIR FORCE EASTERN TEST RANGE (AFETR)

Note: This is a ROCKET BODY
Your satellite tracking list
Your tracking list is empty




NASA's NSSDC Master Catalog

Two Line Element Set (TLE):
1 37233U 10063B   24143.57708907 -.00000024  00000-0  00000+0 0  9991
2 37233   7.5460  95.8991 0219123  36.3900 324.9400  1.04038661 18428
Source of the keplerian elements: McCants